K6OUA-11 Weather Reports


time (UTC)temp
F
wind
direction
speed
knots
gust
knots
rain 1hr
in
rain 24hr
in
rain mn
in
humidity
%
barometer
mb
20260504001653 64 289 4.3 7.0 0.00 0.00 0.00 65
20260504001452 64 282 0.9 7.0 0.00 0.00 0.00 65
20260504001248 64 274 3.5 8.7 0.00 0.00 0.00 65
20260504001048 64 274 4.3 8.7 0.00 0.00 0.00 64
20260504000846 63 271 4.3 8.7 0.00 0.00 0.00 64
20260504000644 64 265 2.6 7.0 0.00 0.00 0.00 64
20260504000442 64 270 3.5 7.0 0.00 0.00 0.00 64
20260504000241 63 288 3.5 7.0 0.00 0.00 0.00 64
20260503235836 63 264 4.3 7.0 0.00 0.00 0.00 64
20260503235634 63 264 5.2 7.0 0.00 0.00 0.00 65
20260503235431 63 277 4.3 7.0 0.00 0.00 0.00 64
20260503235231 63 258 4.3 7.8 0.00 0.00 0.00 66
20260503235029 63 286 4.3 7.8 0.00 0.00 0.00 65
20260503234827 63 274 3.5 7.8 0.00 0.00 0.00 66
20260503234625 63 286 3.5 7.8 0.00 0.00 0.00 65
20260503234423 63 272 7.0 7.8 0.00 0.00 0.00 64
20260503234221 63 254 7.8 6.1 0.00 0.00 0.00 65
20260503234019 63 244 0.9 6.1 0.00 0.00 0.00 65
20260503233818 63 270 3.5 9.6 0.00 0.00 0.00 66
20260503233616 63 253 1.7 9.6 0.00 0.00 0.00 66
20260503233414 63 202 0.0 9.6 0.00 0.00 0.00 65
20260503233212 63 264 9.6 7.0 0.00 0.00 0.00 65
20260503233008 63 262 7.0 7.0 0.00 0.00 0.00 65
20260503232808 63 262 3.5 7.8 0.00 0.00 0.00 64
20260503232606 63 271 5.2 7.8 0.00 0.00 0.00 65
20260503232202 63 262 6.1 7.8 0.00 0.00 0.00 65
20260503232000 63 292 3.5 7.8 0.00 0.00 0.00 66
20260503231758 63 274 5.2 8.7 0.00 0.00 0.00 66
20260503231555 63 251 5.2 8.7 0.00 0.00 0.00 65
20260503231356 63 268 0.9 8.7 0.00 0.00 0.00 66
20260503231153 63 282 2.6 8.7 0.00 0.00 0.00 65
20260503230951 63 271 5.2 8.7 0.00 0.00 0.00 65
20260503230547 63 284 5.2 7.8 0.00 0.00 0.00 64
20260503230345 63 298 4.3 7.8 0.00 0.00 0.00 65
20260503230143 63 270 1.7 9.6 0.00 0.00 0.00 63
20260503225941 64 226 1.7 9.6 0.00 0.00 0.00 64
20260503225739 63 260 7.8 9.6 0.00 0.00 0.00 63
20260503225537 63 274 5.2 9.6 0.00 0.00 0.00 63
20260503225334 64 270 7.8 9.6 0.00 0.00 0.00 63
20260503225134 64 265 7.8 7.8 0.00 0.00 0.00 62
20260503224930 64 248 0.9 7.8 0.00 0.00 0.00 64
20260503224732 64 292 2.6 9.6 0.00 0.00 0.00 64
20260503224526 64 203 0.9 9.6 0.00 0.00 0.00 63
20260503224123 64 243 7.0 4.3 0.00 0.00 0.00 63
20260503223719 64 293 2.6 9.6 0.00 0.00 0.00 64
20260503223517 64 291 1.7 9.6 0.00 0.00 0.00 63
20260503223315 63 282 4.3 8.7 0.00 0.00 0.00 64
20260503223115 63 289 4.3 8.7 0.00 0.00 0.00 64
20260503222911 63 270 7.0 8.7 0.00 0.00 0.00 64
20260503222709 63 272 7.0 9.6 0.00 0.00 0.00 64
20260503222507 63 243 0.9 9.6 0.00 0.00 0.00 65
20260503222305 63 298 4.3 7.0 0.00 0.00 0.00 64
20260503221902 63 278 3.5 7.0 0.00 0.00 0.00 65
20260503221700 63 281 7.0 7.0 0.00 0.00 0.00 65
20260503221457 63 281 6.1 7.0 0.00 0.00 0.00 65
20260503221256 63 257 3.5 7.0 0.00 0.00 0.00 66
20260503221056 62 302 0.9 7.0 0.00 0.00 0.00 67
20260503220854 62 240 0.0 7.0 0.00 0.00 0.00 66
20260503220650 62 258 5.2 7.0 0.00 0.00 0.00 67
20260503220248 62 216 0.0 8.7 0.00 0.00 0.00 67
20260503220046 62 288 3.5 8.7 0.00 0.00 0.00 66
20260503215844 62 292 5.2 8.7 0.00 0.00 0.00 66
20260503215642 62 270 5.2 6.1 0.00 0.00 0.00 66
20260503215440 62 277 5.2 6.1 0.00 0.00 0.00 68
20260503215237 62 284 0.0 7.0 0.00 0.00 0.00 68
20260503215037 62 251 0.9 7.0 0.00 0.00 0.00 68
20260503214834 61 272 6.1 7.0 0.00 0.00 0.00 68
20260503214633 61 262 4.3 7.8 0.00 0.00 0.00 69
20260503214431 61 278 4.3 7.8 0.00 0.00 0.00 69
20260503214229 61 279 3.5 7.8 0.00 0.00 0.00 70
20260503214027 61 267 6.1 7.8 0.00 0.00 0.00 69
20260503213827 61 268 0.9 7.8 0.00 0.00 0.00 71
20260503213623 61 296 4.3 9.6 0.00 0.00 0.00 70
20260503213421 61 267 3.5 9.6 0.00 0.00 0.00 71
20260503213220 60 261 7.8 9.6 0.00 0.00 0.00 70
20260503213018 61 262 6.1 9.6 0.00 0.00 0.00 71
20260503212816 61 247 4.3 7.0 0.00 0.00 0.00 71
20260503212612 61 265 7.8 7.0 0.00 0.00 0.00 70
20260503212412 61 279 2.6 7.0 0.00 0.00 0.00 70
20260503212210 61 270 4.3 6.1 0.00 0.00 0.00 71
20260503212006 61 272 6.1 6.1 0.00 0.00 0.00 71
20260503211806 61 281 2.6 6.1 0.00 0.00 0.00 71
20260503211604 61 277 3.5 6.1 0.00 0.00 0.00 72
20260503211402 61 274 2.6 6.1 0.00 0.00 0.00 71
20260503211200 61 240 0.9 7.0 0.00 0.00 0.00 72
20260503210757 61 275 1.7 6.1 0.00 0.00 0.00 72
20260503210553 61 271 6.1 6.1 0.00 0.00 0.00 72
20260503210353 61 268 4.3 6.1 0.00 0.00 0.00 73
20260503210151 61 240 0.0 7.0 0.00 0.00 0.00 73
20260503205949 61 282 4.3 7.0 0.00 0.00 0.00 73
20260503205747 60 254 3.5 8.7 0.00 0.00 0.00 73
20260503205546 61 293 6.1 8.7 0.00 0.00 0.00 74
20260503205141 60 275 0.9 6.1 0.00 0.00 0.00 74
20260503204939 60 257 4.3 6.1 0.00 0.00 0.00 73
20260503204536 60 265 4.3 8.7 0.00 0.00 0.00 75
20260503204334 60 268 4.3 8.7 0.00 0.00 0.00 74
20260503204132 60 265 7.8 8.7 0.00 0.00 0.00 74
20260503203930 60 255 6.1 8.7 0.00 0.00 0.00 74
20260503203728 60 244 4.3 8.7 0.00 0.00 0.00 75
20260503203526 60 260 3.5 8.7 0.00 0.00 0.00 75
20260503202920 59 261 6.1 11.3 0.00 0.00 0.00 75
20260503202719 60 272 5.2 11.3 0.00 0.00 0.00 75
20260503202517 59 261 6.1 11.3 0.00 0.00 0.00 75
20260503202315 60 260 9.6 10.4 0.00 0.00 0.00 75
20260503202113 60 271 3.5 10.4 0.00 0.00 0.00 75
20260503201507 59 258 7.0 11.3 0.00 0.00 0.00 75
20260503201305 60 251 7.8 9.6 0.00 0.00 0.00 75
20260503201104 59 254 7.0 9.6 0.00 0.00 0.00 75
20260503200902 60 255 6.1 9.6 0.00 0.00 0.00 75
20260503200700 60 257 3.5 9.6 0.00 0.00 0.00 75
20260503200458 60 277 6.1 9.6 0.00 0.00 0.00 75
20260503200256 60 300 5.2 8.7 0.00 0.00 0.00 75
20260503200054 60 257 6.1 8.7 0.00 0.00 0.00 75
20260503195852 61 281 6.1 8.7 0.00 0.00 0.00 74
20260503195650 61 265 6.1 7.8 0.00 0.00 0.00 74
20260503195448 61 255 2.6 7.8 0.00 0.00 0.00 73
20260503195044 61 264 4.3 4.3 0.00 0.00 0.00 72
20260503194843 61 274 5.2 4.3 0.00 0.00 0.00 71
20260503194641 62 286 0.0 0.0 0.00 0.00 0.00 71
20260503194439 62 267 0.9 0.0 0.00 0.00 0.00 72
20260503194236 62 306 0.0 2.6 0.00 0.00 0.00 73
20260503194035 61 306 0.0 2.6 0.00 0.00 0.00 73
20260503193833 61 306 0.0 2.6 0.00 0.00 0.00 73
20260503193631 61 306 0.0 6.1 0.00 0.00 0.00 73
20260503193429 61 319 0.0 6.1 0.00 0.00 0.00 72
20260503193227 61 291 4.3 7.8 0.00 0.00 0.00 72
20260503193026 61 289 3.5 7.8 0.00 0.00 0.00 73
20260503192824 61 299 3.5 7.8 0.00 0.00 0.00 72
20260503192622 61 296 3.5 0.0 0.00 0.00 0.00 72
20260503192420 61 278 0.0 0.0 0.00 0.00 0.00 74
20260503192218 61 278 0.0 7.0 0.00 0.00 0.00 74
20260503192016 61 278 0.0 7.0 0.00 0.00 0.00 74
20260503191814 61 278 0.0 6.1 0.00 0.00 0.00 74
20260503191610 61 298 3.5 6.1 0.00 0.00 0.00 74
20260503191410 61 270 6.1 6.1 0.00 0.00 0.00 74
20260503191208 61 274 5.2 6.1 0.00 0.00 0.00 73
20260503191005 61 286 4.3 6.1 0.00 0.00 0.00 75
20260503190805 60 302 1.7 5.2 0.00 0.00 0.00 75
20260503190603 60 271 5.2 5.2 0.00 0.00 0.00 76
20260503190401 60 292 5.2 5.2 0.00 0.00 0.00 75
20260503190159 60 320 0.9 6.1 0.00 0.00 0.00 76
20260503185957 60 288 4.3 6.1 0.00 0.00 0.00 76
20260503185756 60 291 4.3 5.2 0.00 0.00 0.00 76
20260503185553 60 5 0.9 5.2 0.00 0.00 0.00 77
20260503185351 60 300 3.5 5.2 0.00 0.00 0.00 77
20260503185149 60 354 0.0 2.6 0.00 0.00 0.00 80
20260503184947 60 354 0.0 2.6 0.00 0.00 0.00 80
20260503184745 60 354 0.0 4.3 0.00 0.00 0.00 80
20260503184544 60 2 0.0 4.3 0.00 0.00 0.00 79
20260503184341 60 305 2.6 4.3 0.00 0.00 0.00 78
20260503184139 60 299 1.7 1.7 0.00 0.00 0.00 79
20260503183938 60 344 0.0 1.7 0.00 0.00 0.00 80
20260503183735 59 7 0.9 3.5 0.00 0.00 0.00 81
20260503183534 59 289 0.0 3.5 0.00 0.00 0.00 81
20260503183130 59 307 2.6 0.0 0.00 0.00 0.00 79
20260503182928 59 292 0.0 0.0 0.00 0.00 0.00 81
20260503182726 59 258 0.0 0.9 0.00 0.00 0.00 82
20260503182524 60 258 0.0 0.9 0.00 0.00 0.00 81
20260503182323 59 258 0.0 4.3 0.00 0.00 0.00 82
20260503182121 59 258 0.0 4.3 0.00 0.00 0.00 81
20260503181917 59 258 0.0 4.3 0.00 0.00 0.00 80
20260503181717 59 286 2.6 0.0 0.00 0.00 0.00 80
20260503181515 59 265 1.7 0.0 0.00 0.00 0.00 82
20260503181313 59 310 0.0 2.6 0.00 0.00 0.00 82
20260503181111 59 310 0.0 2.6 0.00 0.00 0.00 82
20260503180909 59 310 0.0 2.6 0.00 0.00 0.00 82
20260503180707 59 310 0.0 0.0 0.00 0.00 0.00 82
20260503180505 59 298 2.6 0.0 0.00 0.00 0.00 81
20260503180302 59 182 0.0 1.7 0.00 0.00 0.00 81
20260503175900 59 182 0.0 1.7 0.00 0.00 0.00 83
20260503175658 59 208 0.9 2.6 0.00 0.00 0.00 81
20260503175456 59 216 0.0 2.6 0.00 0.00 0.00 83
20260503175254 59 223 1.7 2.6 0.00 0.00 0.00 83
20260503175052 59 113 1.7 2.6 0.00 0.00 0.00 85
20260503174850 59 64 0.0 2.6 0.00 0.00 0.00 85
20260503174648 58 192 0.9 3.5 0.00 0.00 0.00 84
20260503174447 58 106 0.0 3.5 0.00 0.00 0.00 86
20260503174042 58 45 0.0 1.7 0.00 0.00 0.00 86
20260503173841 58 123 2.6 1.7 0.00 0.00 0.00 87
20260503173639 58 135 0.0 1.7 0.00 0.00 0.00 88
20260503173435 58 135 0.0 1.7 0.00 0.00 0.00 88
20260503173235 58 91 0.0 1.7 0.00 0.00 0.00 90
20260503173033 58 122 0.9 1.7 0.00 0.00 0.00 90
20260503172831 57 90 0.9 1.7 0.00 0.00 0.00 90
20260503172630 57 84 0.0 1.7 0.00 0.00 0.00 92
20260503172428 57 84 0.0 1.7 0.00 0.00 0.00 92
20260503172024 57 171 0.0 1.7 0.00 0.00 0.00 93
20260503171822 57 187 0.9 2.6 0.00 0.00 0.00 93
20260503171620 57 282 0.0 2.6 0.00 0.00 0.00 93
20260503171418 56 282 0.0 2.6 0.00 0.00 0.00 93
20260503171216 57 285 0.0 1.7 0.00 0.00 0.00 93
20260503171014 57 285 1.7 1.7 0.00 0.00 0.00 93
20260503170812 57 286 0.0 3.5 0.00 0.00 0.00 93
20260503170610 57 289 0.0 3.5 0.00 0.00 0.00 94
20260503170408 57 289 0.0 3.5 0.00 0.00 0.00 94
20260503170206 57 289 0.0 4.3 0.00 0.00 0.00 94
20260503160109 56 264 3.5 6.1 0.00 0.00 0.00 94
20260503150818 57 278 0.0 4.3 0.00 0.00 0.00 95
20260503150618 57 282 0.9 4.3 0.00 0.00 0.00 95
20260503150416 57 282 1.7 4.3 0.00 0.00 0.00 95
20260503150214 56 286 1.7 5.2 0.00 0.00 0.00 95
20260503131231 56 300 0.0 0.0 0.00 0.00 0.00 96
20260503131029 56 300 0.0 0.0 0.00 0.00 0.00 96
20260503130828 56 300 0.0 0.0 0.00 0.00 0.00 96
20260503130626 56 300 0.0 0.0 0.00 0.00 0.00 96
20260503130424 56 300 0.0 0.0 0.00 0.00 0.00 96
20260503130222 56 300 0.0 0.0 0.00 0.00 0.00 96
20260503120124 56 288 0.9 3.5 0.00 0.00 0.00 96
20260503110635 56 260 0.0 0.0 0.00 0.00 0.00 97
20260503110431 56 260 0.0 0.0 0.00 0.00 0.00 96
20260503100217 56 260 0.0 0.0 0.00 0.00 0.00 97
20260503100133 56 260 0.0 0.0 0.00 0.00 0.00 97
20260503090439 56 265 4.3 6.1 0.00 0.00 0.00 96
20260503090237 56 277 4.3 5.2 0.00 0.00 0.00 96
20260503081552 58 267 4.3 4.3 0.00 0.00 0.00 95
20260503081352 58 281 1.7 4.3 0.00 0.00 0.00 95
20260503080746 58 296 1.7 5.2 0.00 0.00 0.00 95
20260503080542 58 281 0.9 5.2 0.00 0.00 0.00 95
20260503080342 58 295 2.6 5.2 0.00 0.00 0.00 95
20260503080140 57 284 2.6 6.1 0.00 0.00 0.00 95
20260503072708 58 277 6.1 5.2 0.00 0.00 0.00 93
20260503072506 58 279 3.5 5.2 0.00 0.00 0.00 93
20260503072305 58 277 2.6 4.3 0.00 0.00 0.00 93
20260503072102 58 281 5.2 4.3 0.00 0.00 0.00 93
20260503071657 58 264 3.5 6.1 0.00 0.00 0.00 93
20260503071256 58 279 3.5 5.2 0.00 0.00 0.00 93
20260503071052 58 271 5.2 5.2 0.00 0.00 0.00 93
20260503070851 58 299 3.5 5.2 0.00 0.00 0.00 93
20260503070649 58 275 2.6 6.1 0.00 0.00 0.00 93
20260503070245 58 293 4.3 5.2 0.00 0.00 0.00 93
20260503060148 59 267 0.0 0.0 0.00 0.00 0.00 91
20260503054735 59 267 0.0 0.0 0.00 0.00 0.00 91
20260503054533 59 267 0.0 0.0 0.00 0.00 0.00 91
20260503054129 59 267 0.0 0.0 0.00 0.00 0.00 91
20260503053927 59 267 0.0 0.0 0.00 0.00 0.00 91
20260503053725 59 267 0.0 0.0 0.00 0.00 0.00 91
20260503053523 59 267 0.0 0.0 0.00 0.00 0.00 91
20260503053120 59 267 0.0 0.0 0.00 0.00 0.00 91
20260503052716 59 267 0.0 0.0 0.00 0.00 0.00 90
20260503052514 59 267 0.0 0.0 0.00 0.00 0.00 90
20260503052310 59 267 0.0 0.0 0.00 0.00 0.00 90
20260503051908 59 267 0.0 0.0 0.00 0.00 0.00 90
20260503051504 59 267 0.0 0.0 0.00 0.00 0.00 90
20260503051302 59 267 0.0 0.0 0.00 0.00 0.00 90
20260503051101 59 267 0.0 0.0 0.00 0.00 0.00 90
20260503050859 59 267 0.0 0.0 0.00 0.00 0.00 90
20260503050454 59 267 0.0 0.0 0.00 0.00 0.00 90
20260503050253 59 267 0.0 0.0 0.00 0.00 0.00 90
20260503050051 59 267 0.0 0.0 0.00 0.00 0.00 90
20260503045849 59 267 0.0 0.0 0.00 0.00 0.00 90
20260503045445 59 267 0.0 0.0 0.00 0.00 0.00 90
20260503045244 59 267 0.0 0.0 0.00 0.00 0.00 90
20260503045042 59 267 0.0 0.0 0.00 0.00 0.00 90
20260503044840 59 267 0.0 0.0 0.00 0.00 0.00 90
20260503044642 59 267 0.0 0.0 0.00 0.00 0.00 90
20260503044436 59 267 0.0 0.0 0.00 0.00 0.00 90
20260503044234 59 267 0.0 0.0 0.00 0.00 0.00 90
20260503044030 59 267 0.0 0.0 0.00 0.00 0.00 90
20260503043830 59 267 0.0 0.0 0.00 0.00 0.00 90
20260503043628 59 267 0.0 0.0 0.00 0.00 0.00 90
20260503043426 59 267 0.0 0.0 0.00 0.00 0.00 90
20260503043224 59 267 0.0 0.0 0.00 0.00 0.00 90
20260503043022 59 267 0.0 0.0 0.00 0.00 0.00 90
20260503042821 59 267 0.0 0.0 0.00 0.00 0.00 90
20260503042415 59 267 0.0 0.0 0.00 0.00 0.00 90
20260503042013 59 267 0.0 0.0 0.00 0.00 0.00 90
20260503041811 59 267 0.0 0.0 0.00 0.00 0.00 90
20260503041609 59 267 0.0 0.0 0.00 0.00 0.00 90
20260503041205 59 267 0.0 0.0 0.00 0.00 0.00 90
20260503041003 59 267 0.0 0.0 0.00 0.00 0.00 90
20260503040800 59 267 0.0 0.0 0.00 0.00 0.00 90
20260503040600 59 267 0.0 0.0 0.00 0.00 0.00 89
20260503040358 59 267 0.0 0.0 0.00 0.00 0.00 90
20260503035348 59 281 2.6 4.3 0.00 0.00 0.00 90
20260503035146 59 288 1.7 6.1 0.00 0.00 0.00 90
20260503034944 59 293 3.5 6.1 0.00 0.00 0.00 90
20260503034540 59 275 4.3 6.1 0.00 0.00 0.00 90
20260503033935 59 284 3.5 6.1 0.00 0.00 0.00 89
20260503033531 59 286 1.7 7.0 0.00 0.00 0.00 88
20260503033329 59 275 4.3 7.0 0.00 0.00 0.00 88
20260503033127 59 281 5.2 7.0 0.00 0.00 0.00 88
20260503032925 60 268 4.3 7.0 0.00 0.00 0.00 88
20260503032723 60 278 5.2 7.8 0.00 0.00 0.00 88
20260503032520 60 284 5.2 7.8 0.00 0.00 0.00 88
20260503032116 60 277 7.0 7.0 0.00 0.00 0.00 87
20260503031914 60 267 6.1 7.0 0.00 0.00 0.00 87
20260503031714 60 293 2.6 8.7 0.00 0.00 0.00 86
20260503031512 60 270 5.2 8.7 0.00 0.00 0.00 86
20260503031308 60 270 5.2 8.7 0.00 0.00 0.00 86
20260503031108 60 279 6.1 8.7 0.00 0.00 0.00 85
20260503030906 60 281 6.1 8.7 0.00 0.00 0.00 86
20260503030704 61 274 7.8 7.8 0.00 0.00 0.00 85
20260503030503 61 270 5.2 7.8 0.00 0.00 0.00 85
20260503030259 61 267 6.1 7.8 0.00 0.00 0.00 85
20260503030059 61 291 6.1 7.8 0.00 0.00 0.00 84
20260503025857 61 284 7.0 7.8 0.00 0.00 0.00 84
20260503025655 61 282 5.2 8.7 0.00 0.00 0.00 84
20260503025451 61 277 6.1 8.7 0.00 0.00 0.00 84
20260503025251 61 268 7.0 7.8 0.00 0.00 0.00 83
20260503025049 62 260 7.8 7.8 0.00 0.00 0.00 83
20260503024847 62 264 7.0 7.8 0.00 0.00 0.00 82
20260503024644 62 275 7.0 7.8 0.00 0.00 0.00 82
20260503024444 62 272 5.2 7.8 0.00 0.00 0.00 82
20260503024242 62 271 6.1 7.8 0.00 0.00 0.00 82
20260503024039 62 274 6.1 7.8 0.00 0.00 0.00 81
20260503023836 62 284 5.2 7.8 0.00 0.00 0.00 81
20260503023434 63 270 5.2 7.8 0.00 0.00 0.00 80
20260503023230 63 277 5.2 7.8 0.00 0.00 0.00 80
20260503023030 63 260 7.0 7.8 0.00 0.00 0.00 79
20260503022828 63 253 7.0 7.8 0.00 0.00 0.00 79
20260503022626 64 272 5.2 8.7 0.00 0.00 0.00 78
20260503022425 64 286 6.1 8.7 0.00 0.00 0.00 78
20260503022223 64 293 6.1 7.0 0.00 0.00 0.00 77
20260503022021 64 279 5.2 7.0 0.00 0.00 0.00 76
20260503021817 65 281 3.5 7.8 0.00 0.00 0.00 76
20260503021615 65 271 4.3 7.8 0.00 0.00 0.00 76
20260503021213 65 261 6.1 7.8 0.00 0.00 0.00 75
20260503021011 65 295 6.1 7.8 0.00 0.00 0.00 75
20260503020809 65 292 6.1 7.8 0.00 0.00 0.00 74
20260503020607 66 279 4.3 7.8 0.00 0.00 0.00 73
20260503020404 66 275 6.1 7.8 0.00 0.00 0.00 73
20260503020204 66 277 3.5 7.8 0.00 0.00 0.00 72
20260503020002 66 278 5.2 7.8 0.00 0.00 0.00 72
20260503015800 67 282 2.6 7.8 0.00 0.00 0.00 72
20260503015356 67 265 5.2 7.8 0.00 0.00 0.00 71
20260503014952 67 279 5.2 8.7 0.00 0.00 0.00 70
20260503014750 67 298 3.5 7.0 0.00 0.00 0.00 70
20260503014548 68 265 3.5 7.0 0.00 0.00 0.00 69
20260503013942 68 267 3.5 7.0 0.00 0.00 0.00 68
20260503013538 68 251 2.6 7.8 0.00 0.00 0.00 68
20260503013337 69 272 5.2 7.8 0.00 0.00 0.00 67
20260503013135 69 268 5.2 7.8 0.00 0.00 0.00 67
20260503012933 69 260 4.3 7.8 0.00 0.00 0.00 67
20260503012529 69 262 7.0 7.8 0.00 0.00 0.00 66
20260503012327 69 264 6.1 7.8 0.00 0.00 0.00 66
20260503011924 69 267 4.3 8.7 0.00 0.00 0.00 66
20260503011520 69 271 5.2 9.6 0.00 0.00 0.00 66
20260503011115 69 286 6.1 10.4 0.00 0.00 0.00 67
20260503010914 69 258 9.6 10.4 0.00 0.00 0.00 65
20260503010711 69 268 7.0 8.7 0.00 0.00 0.00 65
20260503010510 69 268 5.2 8.7 0.00 0.00 0.00 65
20260503010308 69 277 6.1 10.4 0.00 0.00 0.00 65
20260503010106 70 277 7.8 10.4 0.00 0.00 0.00 65
20260503005904 70 240 2.6 10.4 0.00 0.00 0.00 65
20260503005702 70 257 8.7 9.6 0.00 0.00 0.00 63
20260503005500 71 248 9.6 9.6 0.00 0.00 0.00 63
20260503005258 70 260 4.3 8.7 0.00 0.00 0.00 63
20260503005056 70 254 8.7 8.7 0.00 0.00 0.00 63
20260503004855 70 270 6.1 8.7 0.00 0.00 0.00 63
20260503004652 70 278 6.1 8.7 0.00 0.00 0.00 63
20260503004450 71 260 4.3 8.7 0.00 0.00 0.00 62
20260503004248 71 270 8.7 8.7 0.00 0.00 0.00 62
20260503004045 71 255 3.5 8.7 0.00 0.00 0.00 62
20260503003844 71 278 3.5 8.7 0.00 0.00 0.00 61
20260503003643 71 260 5.2 11.3 0.00 0.00 0.00 62
20260503003440 71 278 2.6 11.3 0.00 0.00 0.00 62
20260503003037 71 251 6.1 7.8 0.00 0.00 0.00 61
20260503002835 72 271 7.8 7.8 0.00 0.00 0.00 61
20260503002633 71 275 5.2 7.8 0.00 0.00 0.00 61
20260503002429 72 265 7.0 7.8 0.00 0.00 0.00 61
20260503002229 72 284 5.2 8.7 0.00 0.00 0.00 60
20260503002027 72 277 6.1 8.7 0.00 0.00 0.00 61